Location: Tamazert
(32.6352°N, 5.2072°W)
Time: 04:32:37
(UTC+00:00)

Vanguard 2 - Pass Details

Date: 08 October 2022
Orbit: 553 x 2933 km, 32.9° (Epoch: 26 November)

Event Time Altitude Azimuth Distance (km) Brightness Sun altitude
Rises 14:15:59 0° 274° (W) 4,646 12.0 40.9°
Reaches altitude 10° 14:18:35 10° 275° (W) 3,927 11.7 40.5°
Maximum altitude 14:29:51 90° 194° (SSW) 2,322 10.6 38.8°
Drops below altitude 10° 14:47:06 10° 99° (E) 5,707 11.7 36.0°
Sets 14:51:45 0° 99° (E) 6,781 12.0 35.2°
